• En España
  • Lista de países
  • Para 7 días
  • Temperatura del agua
  • Mapa Satelital
  • El tiempo en el mapa
  • Informadores
  • user-avatar
    Iniciar sesión

    Tiempo cada hora Portimao

    Hoy, 25 Junio, Lunes

    Tiempo Temperatura Precipitaciones Viento Presión Humedad
    00:00 +19°C° 0 mm 3 mps 762 mmHg 93%
    01:00 +19°C° 0 mm 3 mps 762 mmHg 93%
    02:00 +19°C° 0 mm 3 mps 762 mmHg 93%
    03:00 +19°C° 0 mm 3 mps 762 mmHg 92%
    04:00 +19°C° 0 mm 3 mps 761 mmHg 91%
    05:00 +19°C° 0 mm 3 mps 761 mmHg 89%
    06:00 +20°C° 0 mm 3 mps 762 mmHg 85%
    07:00 +21°C° 0 mm 3 mps 762 mmHg 80%
    08:00 +22°C° 0 mm 3 mps 762 mmHg 76%
    09:00 +25°C° 0 mm 3 mps 762 mmHg 67%
    10:00 +27°C° 0 mm 3 mps 763 mmHg 58%
    11:00 +29°C° 0 mm 3 mps 763 mmHg 49%
    12:00 +30°C° 0 mm 4 mps 763 mmHg 46%
    13:00 +30°C° 0 mm 5 mps 762 mmHg 44%
    14:00 +32°C° 0 mm 5 mps 762 mmHg 41%
    15:00 +29°C° 0 mm 6 mps 762 mmHg 46%
    16:00 +28°C° 0 mm 6 mps 762 mmHg 51%
    17:00 +26°C° 0 mm 6 mps 762 mmHg 56%
    18:00 +23°C° 0 mm 6 mps 763 mmHg 66%
    19:00 +21°C° 0 mm 5 mps 763 mmHg 76%
    20:00 +19°C° 0 mm 5 mps 763 mmHg 85%
    21:00 +19°C° 0 mm 5 mps 763 mmHg 87%
    22:00 +17°C° 0 mm 5 mps 763 mmHg 89%
    23:00 +18°C° 0 mm 4 mps 764 mmHg 91%

    Mañana, 26 Junio, Martes

    Tiempo Temperatura Precipitaciones Viento Presión Humedad
    00:00 +17°C° 0 mm 4 mps 763 mmHg 92%
    01:00 +17°C° 0 mm 4 mps 763 mmHg 93%
    02:00 +17°C° 0 mm 4 mps 763 mmHg 94%
    03:00 +17°C° 0 mm 4 mps 763 mmHg 94%
    04:00 +17°C° 0 mm 4 mps 763 mmHg 94%
    05:00 +17°C° 0 mm 3 mps 763 mmHg 94%
    06:00 +19°C° 0 mm 3 mps 763 mmHg 80%
    07:00 +22°C° 0 mm 3 mps 763 mmHg 66%
    08:00 +25°C° 0 mm 3 mps 764 mmHg 52%
    09:00 +27°C° 0 mm 4 mps 763 mmHg 46%
    10:00 +29°C° 0 mm 4 mps 763 mmHg 41%
    11:00 +30°C° 0 mm 5 mps 763 mmHg 35%
    12:00 +30°C° 0 mm 5 mps 763 mmHg 37%
    13:00 +30°C° 0 mm 6 mps 763 mmHg 38%
    14:00 +30°C° 0 mm 7 mps 763 mmHg 40%
    15:00 +29°C° 0 mm 7 mps 763 mmHg 46%
    16:00 +27°C° 0 mm 7 mps 763 mmHg 51%
    17:00 +26°C° 0 mm 7 mps 763 mmHg 57%
    18:00 +23°C° 0 mm 7 mps 763 mmHg 66%
    19:00 +21°C° 0 mm 6 mps 763 mmHg 75%
    20:00 +19°C° 0 mm 6 mps 764 mmHg 84%
    21:00 +19°C° 0 mm 6 mps 764 mmHg 86%
    22:00 +17°C° 0 mm 6 mps 764 mmHg 88%
    23:00 +17°C° 0 mm 5 mps 764 mmHg 90%

    Pasado mañana, 27 Junio, Miércoles

    Tiempo Temperatura Precipitaciones Viento Presión Humedad
    00:00 +17°C° 0 mm 5 mps 764 mmHg 91%
    01:00 +16°C° 0 mm 5 mps 764 mmHg 92%
    02:00 +16°C° 0 mm 5 mps 763 mmHg 93%
    03:00 +16°C° 0 mm 5 mps 763 mmHg 94%
    04:00 +16°C° 0 mm 5 mps 764 mmHg 95%
    05:00 +17°C° 0 mm 4 mps 764 mmHg 96%
    06:00 +19°C° 0 mm 4 mps 764 mmHg 83%
    07:00 +22°C° 0 mm 4 mps 764 mmHg 70%
    08:00 +25°C° 0 mm 4 mps 764 mmHg 57%
    09:00 +27°C° 0 mm 4 mps 763 mmHg 51%
    10:00 +28°C° 0 mm 5 mps 763 mmHg 45%
    11:00 +30°C° 0 mm 5 mps 763 mmHg 39%
    12:00 +30°C° 0 mm 6 mps 763 mmHg 40%
    13:00 +30°C° 0 mm 6 mps 762 mmHg 40%
    14:00 +32°C° 0 mm 7 mps 762 mmHg 40%
    15:00 +29°C° 0 mm 7 mps 762 mmHg 45%
    16:00 +28°C° 0 mm 7 mps 762 mmHg 50%
    17:00 +26°C° 0 mm 7 mps 761 mmHg 55%
    18:00 +23°C° 0 mm 7 mps 762 mmHg 63%
    19:00 +22°C° 0 mm 7 mps 762 mmHg 71%
    20:00 +20°C° 0 mm 6 mps 762 mmHg 79%
    21:00 +19°C° 0 mm 6 mps 762 mmHg 82%
    22:00 +19°C° 0 mm 6 mps 762 mmHg 84%
    23:00 +17°C° 0 mm 6 mps 762 mmHg 87%

    28 Junio, Jueves

    Tiempo Temperatura Precipitaciones Viento Presión Humedad
    00:00 +17°C° 0 mm 5 mps 761 mmHg 89%
    01:00 +17°C° 0 mm 5 mps 761 mmHg 90%
    02:00 +16°C° 0 mm 5 mps 761 mmHg 92%
    03:00 +16°C° 0 mm 5 mps 761 mmHg 93%
    04:00 +16°C° 0 mm 5 mps 760 mmHg 94%
    05:00 +16°C° 0 mm 5 mps 760 mmHg 95%
    06:00 +19°C° 0 mm 4 mps 760 mmHg 82%
    07:00 +21°C° 0 mm 4 mps 760 mmHg 70%
    08:00 +25°C° 0 mm 4 mps 760 mmHg 58%
    09:00 +26°C° 0 mm 4 mps 760 mmHg 52%
    10:00 +27°C° 0 mm 5 mps 760 mmHg 46%
    11:00 +29°C° 0 mm 5 mps 760 mmHg 40%
    12:00 +28°C° 0 mm 5 mps 759 mmHg 43%
    13:00 +28°C° 0 mm 6 mps 759 mmHg 46%
    14:00 +27°C° 0 mm 6 mps 759 mmHg 49%
    15:00 +27°C° 0 mm 7 mps 759 mmHg 50%
    16:00 +27°C° 0 mm 7 mps 758 mmHg 51%
    17:00 +26°C° 0 mm 7 mps 758 mmHg 53%
    18:00 +23°C° 0 mm 6 mps 758 mmHg 62%
    19:00 +21°C° 0 mm 6 mps 759 mmHg 71%
    20:00 +19°C° 0 mm 6 mps 759 mmHg 79%
    21:00 +19°C° 0 mm 6 mps 759 mmHg 82%
    22:00 +17°C° 0 mm 5 mps 758 mmHg 85%
    23:00 +17°C° 0 mm 5 mps 758 mmHg 88%

    29 Junio, Viernes

    Tiempo Temperatura Precipitaciones Viento Presión Humedad
    00:00 +17°C° 0 mm 4 mps 758 mmHg 89%
    01:00 +17°C° 0 mm 4 mps 758 mmHg 90%
    02:00 +17°C° 0 mm 4 mps 757 mmHg 91%
    03:00 +17°C° 0 mm 3 mps 757 mmHg 91%
    04:00 +17°C° 0 mm 3 mps 757 mmHg 91%
    05:00 +17°C° 0 mm 3 mps 757 mmHg 91%
    06:00 +19°C° 0 mm 3 mps 757 mmHg 78%
    07:00 +23°C° 0 mm 2 mps 757 mmHg 65%
    08:00 +25°C° 0 mm 2 mps 757 mmHg 52%
    09:00 +26°C° 0 mm 3 mps 757 mmHg 47%
    10:00 +28°C° 0 mm 3 mps 757 mmHg 43%
    11:00 +29°C° 0 mm 4 mps 757 mmHg 38%
    12:00 +29°C° 0 mm 4 mps 757 mmHg 38%
    13:00 +30°C° 0 mm 5 mps 757 mmHg 38%
    14:00 +30°C° 0 mm 5 mps 756 mmHg 38%
    15:00 +29°C° 0 mm 5 mps 756 mmHg 43%
    16:00 +27°C° 0 mm 6 mps 756 mmHg 47%
    17:00 +26°C° 0 mm 6 mps 756 mmHg 52%
    18:00 +23°C° 0 mm 6 mps 757 mmHg 62%
    19:00 +21°C° 0 mm 5 mps 757 mmHg 72%
    20:00 +19°C° 0 mm 5 mps 757 mmHg 83%
    21:00 +18°C° 0,1 mm 4 mps 757 mmHg 85%
    22:00 +18°C° 0,1 mm 3 mps 758 mmHg 88%
    23:00 +18°C° 0,1 mm 2 mps 758 mmHg 91%

    30 Junio, Sábado

    Tiempo Temperatura Precipitaciones Viento Presión Humedad
    00:00 +17°C° 0 mm 2 mps 758 mmHg 92%
    01:00 +18°C° 0 mm 1 mps 758 mmHg 92%
    02:00 +18°C° 0 mm 1 mps 758 mmHg 93%
    03:00 +18°C° 0 mm 1 mps 758 mmHg 91%
    04:00 +18°C° 0 mm 1 mps 758 mmHg 89%
    05:00 +16°C° 0 mm 0 mps 758 mmHg 87%
    06:00 +20°C° 0 mm 1 mps 759 mmHg 76%
    07:00 +22°C° 0 mm 1 mps 759 mmHg 64%
    08:00 +25°C° 0 mm 1 mps 759 mmHg 53%
    09:00 +26°C° 0 mm 2 mps 759 mmHg 49%
    10:00 +27°C° 0 mm 2 mps 759 mmHg 45%
    11:00 +28°C° 0 mm 3 mps 759 mmHg 41%
    12:00 +29°C° 0 mm 3 mps 759 mmHg 40%
    13:00 +29°C° 0 mm 3 mps 759 mmHg 40%
    14:00 +30°C° 0 mm 4 mps 759 mmHg 40%
    15:00 +29°C° 0 mm 4 mps 759 mmHg 43%
    16:00 +28°C° 0 mm 4 mps 759 mmHg 47%
    17:00 +27°C° 0 mm 4 mps 759 mmHg 51%
    18:00 +25°C° 0 mm 3 mps 760 mmHg 59%
    19:00 +22°C° 0 mm 3 mps 760 mmHg 67%
    20:00 +20°C° 0 mm 2 mps 760 mmHg 75%
    21:00 +19°C° 0 mm 2 mps 761 mmHg 78%
    22:00 +19°C° 0 mm 2 mps 761 mmHg 82%
    23:00 +18°C° 0 mm 2 mps 761 mmHg 85%
    Mostrar más